Location: Columbus
(29.5618°N, 96.6770°W)
Time: 06:22:13
(UTC-06:00)

Daily predictions for brighter satellites

Satellite Brightness Start Highest point End
(mag) Time Altitude Azimuth Time Altitude Azimuth Time Altitude Azimuth
Cosmos 1954 Rocket 4.5 18:38:40 10° SSW 18:43:48 68° WNW 18:49:00 10° N
Cosmos 2227 Rocket 3.9 18:43:53 10° ESE 18:45:09 11° E 18:46:25 10° E
Skynet4D Del rocket 4.4 18:40:11 10° SW 18:45:16 38° SSE 18:50:11 10° E
Okean 1 3.3 18:45:43 10° N 18:49:47 84° E 18:53:50 10° S
Cosmos 2181 Rocket 4.2 18:50:47 10° N 18:56:55 53° E 19:03:06 10° SSE
Okean 1 Rocket 3.2 18:53:28 10° S 18:57:50 57° E 19:02:15 10° NNE
Cosmos 1602 3.8 18:55:16 10° S 18:59:07 85° W 19:03:01 10° N
OTV 4 0.4 18:56:43 10° WSW 18:59:40 75° SSE 19:02:21 12° ENE
Cosmos 1709 Rocket 4.2 18:53:41 10° S 18:59:55 81° W 19:06:07 10° N
Cosmos 2074 Rocket 4.4 18:55:20 10° SSE 19:01:02 39° E 19:06:46 10° NNE
Cosmos 2184 Rocket 4.4 19:00:26 10° SSE 19:06:18 42° E 19:12:08 10° NNE
Meteor 1-11 Rocket 3.8 19:01:57 10° S 19:07:43 89° E 19:13:38 10° N
FUSE 4.5 19:03:17 10° WSW 19:08:28 50° S 19:12:55 14° ESE
Cosmos 1340 2.6 19:06:25 10° N 19:10:12 87° W 19:13:58 10° S
ALOS 2.8 19:06:12 10° SE 19:10:26 36° ENE 19:14:42 10° N
Cosmos 1025 Rocket 3.9 19:11:12 10° NNE 19:14:58 27° E 19:18:43 10° SE
OAO 3 Copernicus 4.3 19:09:58 10° WNW 19:15:04 81° NNE 19:19:05 16° ESE
SL-08 ROCKET BODY 4.4 19:12:06 10° S 19:18:10 64° E 19:24:17 10° NNE
SL-16 R/B 4.1 19:16:14 10° NW 19:21:13 32° WSW 19:26:11 10° SSW
FREGAT/IRIS 2.6 19:19:29 10° SSE 19:22:33 89° ENE 19:25:38 10° N
Cosmos 2333 Rocket 3.8 19:20:31 10° NNE 19:23:48 15° ENE 19:23:54 15° ENE
NOAA 12 4.4 19:20:54 10° S 19:26:11 73° WSW 19:31:31 10° NNW
Cosmos 1544 Rocket 4.4 19:22:43 10° SE 19:26:17 25° E 19:29:51 10° NE
FENGYUN 3A 3.7 19:22:24 10° SSE 19:27:40 56° ENE 19:32:57 10° N
Tiangong 2 2.3 19:25:54 10° WNW 19:28:47 37° SW 19:31:00 15° SSE
Genesis I 3.5 19:30:02 10° NNW 19:33:48 45° ENE 19:35:12 31° ESE
GPS 2-04 Rocket1 3.8 19:30:19 10° WNW 19:34:20 39° N 19:36:30 23° NE
Cosmos 2154 Rocket 4.5 19:29:55 10° SSE 19:35:38 37° E 19:41:21 10° NNE
Okean 1-7 Rocket 3.5 19:33:28 10° N 19:37:59 76° E 19:42:24 10° S
GEOS 3 Rocket 3.9 19:35:01 10° NNE 19:40:16 72° WNW 19:45:32 10° SW
OAO 3 Rocket 3.3 19:36:50 10° SW 19:41:42 60° SSE 19:43:34 35° E
Meteor 1-5 Rocket 4.3 19:36:19 10° S 19:42:18 90° W 19:48:15 10° N
FengYun 1-2 T 4.1 19:37:01 10° SSE 19:42:28 77° ENE 19:47:58 10° N
Cosmos 2285 Rocket 4.3 19:37:15 10° N 19:43:20 43° ENE 19:47:09 21° SE
Cosmos 2082 4.1 19:40:53 10° S 19:46:10 40° ESE 19:48:27 28° ENE
SJ-6B 3.9 19:42:30 10° S 19:46:23 47° W 19:50:12 10° NNW
Hubble Space Telescope 0.8 19:43:13 10° WSW 19:47:18 65° S 19:48:14 48° ESE
Cosmos 1570 Rocket 4.0 19:49:29 10° NNW 19:54:44 83° WSW 19:59:58 10° SSE
Cosmos 2322 4.5 19:50:42 10° NNW 19:56:14 53° WSW 20:01:43 10° S
CZ-2D R/B 4.0 19:59:21 38° NNE 19:59:21 38° NNE 20:01:54 10° N
Helios 1A 4.3 20:00:23 25° NNE 20:00:23 25° NNE 20:02:22 10° N
Meteor 1-12 Rocket 4.5 19:53:26 10° SSE 19:59:10 50° E 20:04:53 10° NNE
H-2A R/B 2.5 19:57:59 39° S 19:59:17 88° WSW 20:03:02 10° NNW
Cosmos 1455 Rocket 4.4 19:59:28 10° S 20:01:28 26° SSE 20:01:28 26° SSE
Spot 2 Rocket 3.5 19:59:03 10° S 20:04:05 81° WSW 20:09:10 10° NNW
Okean 2 3.3 20:01:45 10° N 20:05:40 74° NE 20:05:40 74° NE
Cosmos 2297 Rocket 2.2 20:02:43 10° S 20:08:12 55° ESE 20:08:19 55° ESE
Helios 1B rocket 2.5 20:04:42 10° N 20:08:51 79° WNW 20:12:59 10° SSW
Resurs 01 Rocket 2.1 20:06:02 10° S 20:10:22 58° W 20:14:43 10° NNW
Cosmos 2237 Rocket 3.7 20:07:35 10° N 20:10:07 22° NNE 20:10:07 22° NNE
Cosmos 2333 4.1 20:07:28 10° NNW 20:13:14 89° ENE 20:15:47 35° SSE
DELTA 2 R/B (1) 3.7 20:07:52 10° WNW 20:13:27 68° SSW 20:14:43 51° SSE
COSMOS 2428 2.8 20:08:22 10° NNW 20:14:03 77° WSW 20:17:41 23° S
USA 229 DEB 3.7 20:08:30 10° NNW 20:15:38 64° ENE 20:17:25 50° ESE
USA 229 3.7 20:08:36 10° NNW 20:15:44 64° ENE 20:17:28 50° ESE
Atlas Centaur 2 2.7 20:13:45 10° SW 20:20:47 48° SSE 20:21:05 48° SSE
BREEZE-M DEB (TANK) 3.5 20:19:17 10° NNW 20:22:41 54° NE 20:22:41 54° NE
Resurs 1-3 4.4 20:19:18 12° S 20:23:07 49° W 20:27:22 10° NNW
Delta R/B 3.9 20:14:32 10° W 20:23:55 65° SW 20:23:55 65° SW
Cosmos 2360 Rocket 4.4 20:21:03 10° NW 20:25:24 23° W 20:29:45 10° SSW
Cosmos 2219 Rocket 2.3 20:20:39 10° NNW 20:25:25 61° NNE 20:25:25 61° NNE
Cosmos 2227 Rocket 2.4 20:22:52 10° SSW 20:28:28 69° WNW 20:31:29 28° N
CZ-3 Stage 3 3.9 19:42:19 10° SW 20:29:58 60° SSE 20:32:49 48° ESE
OTV 4 4.0 20:33:29 10° WNW 20:33:37 11° WNW 20:33:37 11° WNW
Skynet4D Del rocket 4.0 20:32:10 10° WSW 20:36:27 53° SW 20:36:27 53° SW
Cosmos 2333 Rocket 3.6 21:02:45 10° NNW 21:05:58 33° NW 21:05:58 33° NW
ATLAS 3B CENTAUR R/B 4.3 21:21:40 10° WSW 21:44:13 67° SSW 21:44:13 67° SSW
